Dewpoint
28 26 28 26 31 31 31 31 32 33 40 41 46 47 47 52 54 54 56 55 54 51 54 56 57 58 60 63 66 66 66 70 72 72 65 63 63 67 68 68 70 74 74 70
25 24 26 25 24 26 30 29 31 31 39 43 42 41 46 48 51 53 55 54 55 53 52 55 57 57 59 63 66 68 67 70 68 67 68 70 69 68 68 67 70 72 70 70
20 23 23 23 23 24 23 25 28 29 29 29 41 44 45 45 48 52 53 54 54 55 54 55 57 56 58 62 66 68 69 70 70 69 66 67 70 70 68 70 65 68 70 71
19 20 20 21 21 21 20 23 27 28 26 25 42 32 48 44 46 49 50 52 52 55 55 53 54 57 57 60 65 68 70 70 70 70 70 72 65 64 63 65 64 65 71 70
20 20 20 21 21 18 19 23 27 26 27 24 27 30 37 40 39 42 48 50 52 53 54 52 53 56 57 60 63 67 71 72 72 72 73 68 69 64 62 62 71 74 74 71
17 19 17 16 16 19 21 23 28 29 26 25 25 24 29 32 36 33 36 44 50 52 53 55 54 56 57 59 63 66 71 73 72 71 70 72 72 70 62 64 66 66 65 69
19 16 16 16 14 15 20 22 25 27 25 24 25 26 25 25 28 27 34 37 45 51 53 54 54 55 57 60 63 65 70 71 71 70 70 70 70 71 72 70 64 71 68 63
20 18 18 17 16 18 20 20 21 25 19 17 25 22 23 24 28 31 32 37 46 50 51 53 55 56 58 59 63 65 70 72 71 70 72 73 71 68 68 70 67 68 68 68
21 20 20 19 17 16 22 21 19 17 16 16 17 22 22 20 25 26 31 39 45 50 51 53 56 56 58 61 64 65 72 72 71 69 72 73 73 71 69 73 71 67 72 69
24 24 24 22 21 17 16 20 17 17 22 21 20 24 22 25 27 32 34 39 47 51 52 53 55 57 58 59 62 64 67 69 70 69 70 70 70 72 71 70 73 73 71 72
24 23 25 24 22 18 16 17 20 17 17 18 18 19 24 27 30 32 36 42 47 50 52 53 56 59 60 61 63 63 67 68 69 68 70 70 69 69 71 70 71 74 71 73
26 23 25 24 24 21 17 18 17 18 25 23 22 20 22 23 23 30 37 45 47 50 52 54 56 60 63 63 64 67 66 66 67 68 71 68 68 69 68 71 71 74 75 73
28 25 24 24 22 24 22 22 22 18 20 26 20 20 25 24 27 33 39 49 52 53 55 56 56 59 64 63 65 68 69 67 66 67 64 67 68 67 68 70 71 73 75 75
41 27 27 22 26 32 30 25 22 20 20 22 21 23 27 29 31 26 41 50 53 56 58 57 58 62 65 67 69 70 69 69 71 67 65 70 69 69 69 71 73 73 76 76
31 30 30 27 25 26 31 32 29 25 25 25 26 24 28 33 30 30 33 48 52 56 57 58 59 62 68 70 71 71 72 72 71 73 73 74 75 74 75 75 74 75 75 74
34 34 34 31 28 27 25 25 25 25 25 28 29 30 29 31 31 33 34 46 52 55 57 59 60 63 65 67 68 71 72 74 74 74 72 75 76 77 76 76 76 77 76 76
39 37 36 32 31 29 27 28 27 27 26 26 25 33 32 33 33 35 36 47 54 53 54 58 60 63 65 66 68 69 71 72 74 74 73 74 75 75 76 76 76 76 76 77
37 39 37 33 34 30 30 30 29 27 27 27 29 30 32 35 35 34 37 44 53 53 54 58 57 61 65 66 67 69 70 72 73 73 73 74 74 74 75 75 74 75 75 75
32 35 34 33 32 33 30 30 29 30 31 31 31 31 32 34 34 44 41 43 52 55 56 58 59 62 67 66 69 70 71 72 72 72 72 72 72 72 72 72 73 74 74 76
28 32 32 34 32 30 33 30 39 38 32 34 35 36 38 35 35 41 47 47 46 53 57 61 61 66 67 69 70 69 69 69 69 70 71 71 71 71 71 71 72 72 72 72
30 32 29 28 31 31 32 33 37 37 40 48 48 50 53 51 52 56 52 51 49 50 58 63 65 67 68 68 67 68 68 68 70 70 70 70 70 70 71 71 71 71 71 71
31 30 27 30 31 27 45 39 35 46 46 49 50 51 53 55 53 55 54 53 53 54 59 63 65 66 66 67 66 67 68 69 69 70 70 70 70 68 68 70 70 70 70 69
30 31 29 32 44 49 46 45 47 47 49 50 51 50 52 52 54 54 56 57 55 57 59 62 64 66 66 66 66 66 69 70 70 70 69 69 69 68 68 69 70 68 70 68
34 36 34 36 36 38 44 46 46 49 49 49 48 49 50 51 52 55 58 58 57 58 61 63 64 65 65 67 66 68 69 70 69 69 69 68 68 67 67 65 65 65 66 67
34 37 37 39 41 40 39 47 52 49 47 46 47 48 48 50 52 54 57 62 61 60 62 64 65 65 65 67 68 68 69 69 68 68 66 66 64 65 66 63 61 63 61 56
34 36 34 33 39 40 41 42 50 52 44 45 45 47 48 48 50 52 56 61 64 62 64 67 68 66 66 65 67 70 69 69 67 65 62 60 58 61 61 61 60 49 48 47
Lifted_Index
5 5 4 3 2 1 1 1 -0 -1 -0 -0 -1 -2 -2 -2 -3 -3 -2 -2 -1 -0 -0 -0 -0 -0 -1 -1 -2 -2 -2 -2 -2 -2 -1 0 0 -1 -1 -2 -3 -4 -4 -3
5 5 4 4 3 2 2 1 0 -0 0 0 -1 -2 -2 -2 -3 -3 -3 -2 -2 -1 -1 -0 -0 -0 -1 -1 -2 -2 -2 -2 -2 -2 -1 -1 -1 -1 -1 -2 -2 -3 -4 -4
5 4 4 4 4 4 3 2 1 0 1 1 -1 -2 -2 -2 -3 -3 -3 -3 -2 -2 -1 -1 -1 -1 -1 -1 -2 -3 -3 -3 -2 -2 -2 -1 -1 -1 -2 -2 -2 -3 -4 -4
4 4 4 4 4 4 3 2 1 2 2 1 -1 -1 -2 -2 -2 -3 -3 -2 -2 -2 -2 -1 -1 -1 -1 -2 -2 -3 -3 -3 -3 -2 -2 -2 -2 -1 -1 -2 -2 -3 -4 -4
4 5 5 4 4 4 3 2 2 2 2 0 -1 -1 -1 -1 -2 -2 -2 -2 -2 -2 -2 -1 -1 -1 -1 -2 -2 -3 -4 -4 -3 -3 -3 -2 -2 -2 -1 -1 -2 -3 -4 -5
4 4 5 4 4 4 4 3 2 2 1 -0 -0 -1 -1 -1 -1 -1 -1 -1 -2 -2 -2 -2 -1 -1 -2 -2 -3 -4 -4 -4 -4 -3 -3 -3 -3 -2 -2 -2 -2 -3 -4 -4
3 3 4 4 4 4 4 3 1 0 -0 -0 -1 -0 -0 -1 -1 -1 -1 -1 -2 -2 -2 -2 -2 -2 -2 -3 -3 -4 -5 -5 -4 -4 -3 -3 -3 -3 -3 -3 -3 -3 -3 -3
1 1 2 3 4 3 3 2 0 -0 -1 -1 -1 -1 -1 -0 -0 -1 -1 -1 -2 -3 -3 -3 -3 -3 -3 -3 -4 -4 -5 -6 -5 -4 -4 -4 -4 -4 -4 -4 -4 -4 -3 -3
0 0 1 2 3 3 2 1 0 -1 -1 -1 -1 -1 -1 -0 -0 -1 -1 -2 -3 -3 -3 -3 -3 -3 -3 -4 -4 -5 -6 -6 -5 -5 -4 -5 -5 -4 -4 -4 -4 -4 -4 -4
1 0 0 1 2 2 2 1 0 -0 -1 -1 -1 -1 -1 -0 -0 -1 -1 -2 -3 -4 -4 -3 -4 -3 -4 -4 -5 -5 -5 -6 -6 -5 -5 -5 -5 -5 -4 -4 -5 -5 -5 -5
1 0 -0 0 1 1 1 1 0 -0 -1 -1 -1 -1 -1 -1 -1 -1 -2 -2 -3 -3 -4 -4 -4 -4 -4 -4 -5 -5 -5 -5 -5 -5 -5 -4 -4 -4 -4 -5 -5 -5 -5 -5
0 -0 -0 -0 0 0 0 0 -0 -0 -1 -1 -1 -1 -1 -1 -0 -1 -1 -3 -3 -3 -4 -4 -3 -4 -4 -4 -5 -6 -5 -5 -5 -4 -4 -4 -4 -4 -4 -5 -5 -5 -6 -5
0 0 -0 -0 -0 -0 -0 -0 -1 -1 -1 -1 -1 -1 -1 -1 -0 -0 -2 -3 -4 -4 -4 -4 -4 -4 -4 -5 -5 -6 -6 -5 -5 -4 -4 -4 -4 -4 -5 -5 -5 -6 -6 -6
1 1 0 -0 -0 -0 -0 -0 -0 -1 -1 -1 -1 -1 -1 -0 -0 -0 -2 -4 -4 -5 -5 -4 -4 -4 -5 -6 -6 -6 -6 -6 -5 -5 -4 -5 -5 -5 -5 -5 -6 -6 -6 -6
1 1 1 0 0 -0 -0 -0 -0 -0 -0 -1 -0 -0 -0 -0 -0 -0 -2 -3 -5 -5 -5 -5 -5 -5 -6 -6 -7 -7 -7 -7 -6 -6 -6 -6 -6 -6 -6 -6 -6 -6 -6 -6
1 1 1 1 0 -0 -0 -0 -0 -0 -0 -0 -0 -0 -0 -0 -0 -0 -1 -3 -5 -5 -5 -5 -5 -6 -6 -7 -7 -7 -7 -7 -7 -7 -7 -7 -7 -7 -7 -6 -6 -6 -6 -6
1 1 0 0 -0 -1 -1 -0 -0 -0 -0 -0 -0 -0 0 0 -0 -0 -1 -3 -5 -5 -5 -5 -6 -7 -7 -7 -7 -8 -8 -7 -7 -7 -7 -7 -7 -7 -7 -6 -6 -6 -6 -6
1 1 0 0 -0 -1 -0 -1 -1 -0 -0 -0 -0 -0 0 0 -0 -1 -2 -3 -5 -5 -5 -5 -6 -7 -7 -8 -8 -8 -8 -8 -7 -7 -6 -6 -6 -6 -6 -6 -6 -6 -6 -6
1 1 0 -0 -1 -0 -0 -1 -1 -1 -1 -1 -1 -1 -0 0 0 -1 -2 -3 -5 -5 -6 -6 -7 -7 -8 -8 -8 -8 -8 -7 -7 -6 -6 -5 -5 -5 -5 -5 -5 -5 -5 -5
1 0 -0 -1 -1 -1 -1 -1 -1 -1 -1 -1 -1 -1 -1 -1 -1 -2 -3 -4 -4 -6 -7 -7 -8 -8 -8 -8 -8 -8 -7 -7 -6 -5 -5 -4 -4 -4 -4 -4 -4 -4 -4 -4
-1 -1 -1 -2 -2 -1 -1 -1 -1 -1 -2 -2 -2 -2 -3 -3 -3 -3 -4 -4 -5 -6 -7 -8 -8 -9 -8 -8 -7 -7 -6 -6 -5 -4 -4 -4 -3 -3 -3 -3 -3 -3 -3 -3
-2 -2 -2 -2 -2 -2 -2 -2 -2 -1 -2 -3 -3 -3 -3 -3 -4 -4 -4 -5 -5 -6 -7 -8 -8 -8 -8 -7 -7 -6 -6 -5 -5 -4 -4 -3 -3 -2 -2 -2 -2 -3 -2 -2
-2 -2 -2 -1 -1 -1 -2 -2 -2 -2 -2 -2 -2 -2 -3 -3 -3 -4 -5 -5 -6 -7 -7 -8 -8 -7 -7 -6 -6 -6 -6 -5 -5 -4 -4 -3 -2 -2 -2 -2 -2 -2 -2 -2
-1 -1 -1 -1 -1 -1 -1 -1 -2 -2 -2 -2 -2 -2 -2 -3 -3 -4 -5 -6 -7 -7 -8 -8 -7 -7 -6 -6 -6 -6 -6 -5 -5 -4 -4 -3 -2 -2 -1 -1 -1 -1 -1 -1
0 0 0 0 -0 -0 -0 -1 -1 -2 -2 -2 -1 -2 -2 -2 -2 -3 -5 -6 -7 -7 -8 -8 -7 -7 -6 -6 -6 -6 -6 -5 -5 -4 -3 -3 -2 -1 -1 0 1 1 1 1
1 1 1 0 0 0 0 -0 -1 -1 -2 -2 -1 -2 -1 -1 -2 -3 -4 -6 -7 -7 -8 -8 -8 -7 -6 -6 -6 -6 -6 -5 -5 -4 -3 -2 -1 -1 -0 1 2 2 2 2